GW3707 Weather Reports


time (UTC)temp
F
wind
direction
speed
knots
gust
knots
rain 1hr
in
rain 24hr
in
rain mn
in
humidity
%
barometer
mb
20260506164537 56 40 1.7 7.8 0.00 0.01 0.01 87 1015.5
20260506163517 55 20 2.6 7.8 0.00 0.01 0.01 87 1015.8
20260506162516 55 12 2.6 8.7 0.00 0.01 0.01 87 1016.0
20260506161537 55 37 3.5 7.0 0.00 0.01 0.01 88 1015.6
20260506160537 54 39 5.2 12.2 0.00 0.01 0.01 88 1015.2
20260506155517 54 40 7.0 13.9 0.00 0.01 0.01 89 1014.5
20260506154516 54 39 5.2 10.4 0.01 0.01 0.01 90 1014.7
20260506153536 53 40 7.0 9.6 0.01 0.01 0.01 90 1014.9
20260506152517 53 42 4.3 8.7 0.01 0.01 0.01 90 1014.9
20260506151516 53 40 2.6 9.6 0.01 0.01 0.01 90 1015.8
20260506150516 53 19 1.7 8.7 0.01 0.01 0.01 90 1016.4
20260506145516 53 19 3.5 9.6 0.01 0.01 0.01 89 1015.6
20260506144516 53 347 4.3 11.3 0.00 0.00 0.00 88 1016.3
20260506143516 54 344 3.5 13.0 0.00 0.00 0.00 86 1016.2
20260506142536 54 298 7.0 13.0 0.00 0.00 0.00 85 1017.1
20260506141516 55 297 5.2 13.0 0.00 0.00 0.00 84 1016.1
20260506140517 55 313 3.5 10.4 0.00 0.00 0.00 82 1015.1
20260506135516 55 331 4.3 12.2 0.00 0.00 0.00 81 1014.9
20260506134536 56 1 4.3 11.3 0.00 0.00 0.00 80 1014.8
20260506133516 56 36 4.3 9.6 0.00 0.00 0.00 80 1015.0
20260506132516 56 309 3.5 10.4 0.00 0.00 0.00 81 1014.8
20260506131516 56 33 6.1 13.0 0.00 0.00 0.00 81 1014.3
20260506130516 56 319 3.5 9.6 0.00 0.00 0.00 81 1013.9
20260506125536 56 32 6.1 13.9 0.00 0.00 0.00 81 1013.8
20260506124536 56 8 4.3 11.3 0.00 0.00 0.00 81 1013.9
20260506123516 56 311 4.3 9.6 0.00 0.00 0.00 82 1013.8
20260506122516 57 336 4.3 11.3 0.00 0.00 0.00 83 1013.5
20260506121536 57 32 6.1 13.9 0.00 0.00 0.00 83 1013.4
20260506120516 57 317 5.2 10.4 0.00 0.00 0.00 83 1013.3
20260506115516 57 297 4.3 8.7 0.00 0.00 0.00 83 1013.3
20260506114516 57 332 2.6 13.0 0.00 0.00 0.00 84 1013.3
20260506113516 57 300 5.2 12.2 0.00 0.00 0.00 83 1013.2
20260506112516 58 301 4.3 10.4 0.00 0.00 0.00 83 1013.0
20260506111556 58 298 4.3 9.6 0.00 0.00 0.00 83 1012.8
20260506110516 58 304 5.2 12.2 0.00 0.00 0.00 82 1012.5
20260506105516 58 303 4.3 9.6 0.00 0.00 0.00 82 1012.3
20260506104516 59 309 3.5 9.6 0.00 0.00 0.00 82 1012.2
20260506103516 59 300 4.3 9.6 0.00 0.00 0.00 82 1012.1
20260506102516 60 292 2.6 6.1 0.00 0.00 0.00 82 1011.9
20260506101516 60 301 3.5 7.8 0.00 0.00 0.00 82 1011.8
20260506100516 60 304 3.5 8.7 0.00 0.00 0.00 82 1011.7
20260506095516 61 0 2.6 7.8 0.00 0.00 0.00 82 1011.6
20260506094516 61 359 1.7 5.2 0.00 0.00 0.00 82 1011.3
20260506093516 61 309 2.6 8.7 0.00 0.00 0.00 81 1011.3
20260506092516 61 349 2.6 8.7 0.00 0.00 0.00 81 1011.3
20260506091516 62 311 2.6 7.0 0.00 0.00 0.00 81 1011.3
20260506090516 62 303 3.5 9.6 0.00 0.00 0.00 81 1011.2
20260506085516 62 309 3.5 8.7 0.00 0.00 0.00 81 1011.3
20260506084516 62 38 2.6 6.1 0.00 0.00 0.00 81 1011.1
20260506083516 62 53 1.7 6.1 0.00 0.00 0.00 82 1011.1
20260506082536 62 34 2.6 7.8 0.00 0.00 0.00 82 1011.0
20260506081516 63 19 1.7 7.8 0.00 0.00 0.00 82 1011.0
20260506080516 63 12 2.6 7.8 0.00 0.00 0.00 81 1010.9
20260506073515 63 40 3.5 6.1 0.00 0.00 0.00 81 1010.7
20260506072516 64 41 3.5 7.0 0.00 0.00 0.00 81 1010.7
20260506071515 64 42 3.5 9.6 0.00 0.00 0.00 80 1010.7
20260506070516 64 36 4.3 8.7 0.00 0.00 0.00 80 1010.7
20260506062515 65 38 1.7 5.2 0.00 0.00 0.00 79 1010.5
20260506061536 66 17 1.7 7.0 0.00 0.00 0.00 79 1010.5
20260506060515 66 325 2.6 7.0 0.00 0.00 0.00 79 1010.6
20260506050518 68 39 2.6 7.0 0.00 0.00 0.00 77 1010.3
20260506044518 69 12 2.6 9.6 0.00 0.00 0.00 75 1010.3
20260506043518 70 302 2.6 8.7 0.00 0.00 0.00 75 1010.4
20260506042518 70 334 3.5 9.6 0.00 0.00 0.00 74 1010.2
20260506041518 71 334 4.3 11.3 0.00 0.00 0.00 74 1010.2
20260506040538 72 350 3.5 9.6 0.00 0.00 0.00 74 1010.1
20260506035518 72 32 3.5 9.6 0.00 0.00 0.00 73 1010.0
20260506034558 73 30 3.5 8.7 0.00 0.00 0.00 73 1009.6
20260506033518 73 41 3.5 7.0 0.00 0.00 0.00 73 1009.2
20260506032518 74 32 3.5 9.6 0.00 0.00 0.00 72 1009.0
20260506031518 74 42 1.7 7.0 0.00 0.00 0.00 72 1008.9
20260506030518 74 46 3.5 7.8 0.00 0.00 0.00 71 1008.6
20260506025518 75 38 4.3 9.6 0.00 0.00 0.00 73 1009.0
20260506024518 75 38 7.0 11.3 0.00 0.00 0.00 73 1008.4
20260506023518 75 335 2.6 7.8 0.00 0.00 0.00 73 1008.1
20260506022518 75 12 3.5 8.7 0.00 0.00 0.00 72 1008.0
20260506021518 76 299 3.5 9.6 0.00 0.00 0.00 71 1007.8
20260506020538 76 315 1.7 7.8 0.00 0.00 0.00 70 1007.5
20260506015517 77 302 3.5 7.8 0.00 0.00 0.00 70 1007.2
20260506014518 78 337 1.7 7.8 0.00 0.00 0.00 70 1006.9
20260506013538 78 40 3.5 8.7 0.00 0.00 0.00 69 1006.6
20260506012538 78 307 2.6 7.8 0.00 0.00 0.00 69 1006.6
20260506011518 79 303 2.6 7.8 0.00 0.00 0.00 68 1006.7
20260506010517 81 304 2.6 7.0 0.00 0.00 0.00 70 1006.4
20260506005538 82 60 0.0 7.0 0.00 0.00 0.00 78 1006.1
20260506004518 83 137 1.7 7.8 0.00 0.00 0.00 77 1005.9
20260506003518 84 125 0.9 8.7 0.00 0.00 0.00 76 1005.8
20260506002518 85 142 3.5 11.3 0.00 0.00 0.00 73 1005.8
20260506001538 87 140 2.6 8.7 0.00 0.00 0.00 71 1005.8
20260506000518 87 138 2.6 10.4 0.00 0.00 0.00 71 1005.7
20260505235517 87 137 2.6 8.7 0.00 0.00 0.00 71 1005.6
20260505234517 86 136 3.5 8.7 0.00 0.00 0.00 73 1005.6
20260505233518 87 139 3.5 10.4 0.00 0.00 0.00 71 1005.5
20260505232517 88 140 4.3 11.3 0.00 0.00 0.00 70 1005.4
20260505231517 89 130 2.6 8.7 0.00 0.00 0.00 69 1005.3
20260505230517 89 128 3.5 9.6 0.00 0.00 0.00 69 1005.3
20260505225538 91 124 3.5 8.7 0.00 0.00 0.00 66 1005.3
20260505224518 93 140 0.9 6.1 0.00 0.00 0.00 62 1005.2
20260505223517 93 160 0.0 4.3 0.00 0.00 0.00 57 1005.2
20260505222517 94 186 0.0 7.0 0.00 0.00 0.00 55 1005.0
20260505221517 95 135 0.9 5.2 0.00 0.00 0.00 54 1005.1
20260505220517 95 127 0.0 3.5 0.00 0.00 0.00 55 1005.0
20260505215517 95 151 0.0 4.3 0.00 0.00 0.00 56 1005.2
20260505214518 95 127 0.0 2.6 0.00 0.00 0.00 56 1005.3
20260505213517 95 132 0.0 5.2 0.00 0.00 0.00 56 1005.3
20260505212518 95 132 0.9 3.5 0.00 0.00 0.00 55 1005.3
20260505211517 96 113 0.0 5.2 0.00 0.00 0.00 55 1005.6
20260505210516 96 124 0.0 0.9 0.00 0.00 0.00 56 1005.7
20260505205517 94 110 0.0 3.5 0.00 0.00 0.00 59 1005.9
20260505204538 94 248 1.7 7.0 0.00 0.00 0.00 56 1005.8
20260505203537 94 192 0.9 6.1 0.00 0.00 0.00 56 1006.0
20260505202537 94 131 0.0 7.0 0.00 0.00 0.00 59 1006.2
20260505201518 94 120 0.0 2.6 0.00 0.00 0.00 59 1006.3
20260505200517 94 240 0.9 3.5 0.00 0.00 0.00 59 1006.3
20260505195517 93 272 0.0 6.1 0.00 0.00 0.00 60 1006.3
20260505194517 92 210 0.0 4.3 0.00 0.00 0.00 61 1006.4
20260505193537 92 238 0.9 7.0 0.00 0.00 0.00 60 1006.4
20260505192517 92 236 1.7 7.8 0.00 0.00 0.00 61 1006.6
20260505191517 92 239 0.9 5.2 0.00 0.00 0.00 60 1006.6
20260505190517 92 229 0.9 4.3 0.00 0.00 0.00 62 1006.7
20260505185517 91 293 0.9 7.0 0.00 0.00 0.00 64 1006.8
20260505184517 91 268 0.9 5.2 0.00 0.00 0.00 64 1006.9
20260505183517 90 260 0.9 5.2 0.00 0.00 0.00 66 1007.0
20260505182517 89 241 2.6 7.0 0.00 0.00 0.00 65 1007.0
20260505181517 88 265 0.9 7.0 0.00 0.00 0.00 67 1007.1
20260505180557 89 223 0.9 6.1 0.00 0.00 0.00 66 1007.1
20260505175517 88 261 1.7 6.1 0.00 0.00 0.00 69 1007.3
20260505174517 86 341 1.7 7.0 0.00 0.00 0.00 70 1007.2
20260505173517 85 49 0.9 7.0 0.00 0.00 0.00 71 1007.2
20260505172517 85 3 0.9 8.7 0.00 0.00 0.00 72 1007.2
20260505171517 84 135 1.7 9.6 0.00 0.00 0.00 71 1007.2
20260505170517 84 3 1.7 11.3 0.00 0.00 0.00 71 1007.3
20260505165517 85 103 0.9 6.1 0.00 0.00 0.00 71 1007.4